THOR ABLESTAR DEB, 408

Orbit data source: Space-Track

THOR ABLESTAR DEB, 408 is space debris in LEO originally from a launch on Thu, 29 Jun 1961 UTC launched from the Air Force Eastern Test Range (AFETR). Debris objects in space refer to the collection of defunct objects orbiting the Earth. Examples of debris include non-operational satellites, rocket bodies, and fragments generated from explosions, collisions, or faulty payload assembly.

Loading next visibility...
Identifier
408, 1961-015EH
Orbit
LEO
Country
Flag of USUS
Related business
Manufacturer
Unknown
Mission
Spacecraft
Bus & Motor
Unknown
Mass
Unknown
Launch date (UTC)
1961-06-29 (65 years ago)
Launch vehicle
Unknown
Launch site
Air Force Eastern Test Range (AFETR)
Object type
Payload
Rocket body
Debris
Shape & HBR
Unknown shape, 0.1 m
Radar Cross Section
Medium (>0.1 m² and <1 m²)

Expand to show TLE details & history
Last TLE update: 17 hours ago

TLE from 17 hours ago
0 THOR ABLESTAR DEB
1 00408U 61015EH  26105.85212618  .00000259  00000-0  33173-3 0  9998
2 00408  66.7853 258.0453 0062612 168.8785 340.9880 13.77124683297110
Epoch: 2026-04-15T20:27Z
TLE epoch observation values (Epoch: 2026-04-15T20:27:03.701Z)
Latitude
27.74256°
Longitude
-85.69615°
Altitude
933.166 km
Speed
7.41 km/s
True Right ascension
04h 20m 18s
True Declination
27° 36' 16"
Sunlit
Object was in daylight at epoch
Visualization orbit readout
Latitude
Unknown
Longitude
Unknown
Altitude
Unknown
Speed
Unknown
Apparent Right ascension
Unknown
Apparent Declination
Unknown
Sunlit
N/A
Visualization observer readout
Local Sidereal Time
20:27:12
Azimuth
Unknown
Elevation
Unknown
Doppler factor
Unknown
Orbital elements
Apogee altitude
1,018.532 km
Perigee altitude
926.485 km
Semi-major axis
7,350.646 km
Eccentricity
0.00626
Inclination
66.7853°
RAAN
258.0453°
Arg. of periapsis
168.8785°
True anomaly
340.75253°
Mean anomaly
340.988°
Eccentric anomaly
340.87044°
Mean motion
3.44394 °/min
Orbital period
104.53 mins
BSTAR
0.00033173
Loading maneuver chart data...
Computing Atmospheric mass density...
Loading historical data...
Loading historical data...
Loading historical data...
Loading historical data...
Loading historical data...
Loading historical data...
Loading historical data...

Documentation

Showing up to 5 results
|